Time,TemperatureF,DewpointF,PressureIn,WindDirection,WindDirectionDegrees,WindSpeedMPH,WindSpeedGustMPH,Humidity,HourlyPrecipIn,Conditions,Clouds,dailyrainin,SoftwareType,DateUTC
2013-07-14 09:12:00,-999.9,-99.9,18.84,North,32767,-999.0,0.0,255,-99.99,,,0.00,Wunderground v.1.15,2013-07-14 13:12:00,
2013-07-14 09:14:00,-999.9,-99.9,18.84,North,32767,-999.0,0.0,255,-99.99,,,0.00,Wunderground v.1.15,2013-07-14 13:14:00,
2013-07-14 09:16:00,-999.9,-99.9,18.84,North,32767,-999.0,0.0,255,-99.99,,,0.00,Wunderground v.1.15,2013-07-14 13:16:00,
2013-07-14 09:18:00,-999.9,-99.9,18.84,North,32767,-999.0,0.0,255,-99.99,,,0.00,Wunderground v.1.15,2013-07-14 13:18:00,
2013-07-14 09:24:00,-999.9,-99.9,18.84,North,32767,-999.0,0.0,255,-99.99,,,0.00,Wunderground v.1.15,2013-07-14 13:24:00,
2013-07-14 09:30:00,-999.9,-99.9,18.84,North,32767,-999.0,0.0,255,-99.99,,,0.00,Wunderground v.1.15,2013-07-14 13:30:00,
2013-07-14 09:36:00,-999.9,-99.9,18.84,North,32767,-999.0,0.0,255,-99.99,,,0.00,Wunderground v.1.15,2013-07-14 13:36:00,
2013-07-14 09:42:00,-999.9,-99.9,18.84,North,32767,-999.0,0.0,255,-99.99,,,0.00,Wunderground v.1.15,2013-07-14 13:42:00,
2013-07-14 09:48:00,-999.9,-99.9,18.84,North,32767,-999.0,0.0,255,-99.99,,,0.00,Wunderground v.1.15,2013-07-14 13:48:00,
2013-07-14 09:54:00,-999.9,-99.9,18.84,North,32767,-999.0,0.0,255,-99.99,,,0.00,Wunderground v.1.15,2013-07-14 13:54:00,
2013-07-14 10:00:00,-999.9,-99.9,18.84,North,32767,-999.0,0.0,255,-99.99,,,0.00,Wunderground v.1.15,2013-07-14 14:00:00,
2013-07-14 10:06:00,-999.9,-99.9,18.84,North,32767,-999.0,0.0,255,-99.99,,,0.00,Wunderground v.1.15,2013-07-14 14:06:00,
2013-07-14 10:12:00,-999.9,-99.9,18.84,North,32767,-999.0,0.0,255,-99.99,,,0.00,Wunderground v.1.15,2013-07-14 14:12:00,
2013-07-14 10:18:00,-999.9,-99.9,18.84,North,32767,-999.0,0.0,255,-99.99,,,0.00,Wunderground v.1.15,2013-07-14 14:18:00,
2013-07-14 10:24:00,-999.9,-99.9,18.84,North,32767,-999.0,0.0,255,-99.99,,,0.00,Wunderground v.1.15,2013-07-14 14:24:00,
2013-07-14 10:30:00,-999.9,-99.9,18.84,North,32767,-999.0,0.0,255,-99.99,,,0.00,Wunderground v.1.15,2013-07-14 14:30:00,
2013-07-14 10:36:00,-999.9,-99.9,18.84,North,32767,-999.0,0.0,255,-99.99,,,0.00,Wunderground v.1.15,2013-07-14 14:36:00,
2013-07-14 10:42:00,77.9,63.8,18.84,South,174,5.0,5.0,62,0.00,,,0.00,Wunderground v.1.15,2013-07-14 14:42:00,
2013-07-14 10:48:00,78.5,64.4,18.84,SSE,149,5.0,6.0,62,0.00,,,0.00,Wunderground v.1.15,2013-07-14 14:48:00,
2013-07-14 10:54:00,78.8,64.2,18.79,East,100,3.0,6.0,61,0.00,,,0.00,Wunderground v.1.15,2013-07-14 14:54:00,
2013-07-14 11:00:00,78.6,63.6,18.79,SE,142,7.0,14.0,60,0.00,,,0.00,Wunderground v.1.15,2013-07-14 15:00:00,
2013-07-14 11:06:00,78.5,64.4,18.79,South,188,9.0,14.0,62,0.00,,,0.00,Wunderground v.1.15,2013-07-14 15:06:00,
2013-07-14 11:12:00,78.8,64.2,18.79,SE,133,5.0,7.0,61,0.00,,,0.00,Wunderground v.1.15,2013-07-14 15:12:00,
2013-07-14 11:18:00,78.8,63.3,18.79,SE,142,7.0,12.0,59,0.00,,,0.00,Wunderground v.1.15,2013-07-14 15:18:00,
2013-07-14 11:24:00,79.0,63.9,18.79,SE,142,10.0,10.0,60,0.00,,,0.00,Wunderground v.1.15,2013-07-14 15:24:00,
2013-07-14 11:30:00,79.4,63.8,18.79,ESE,122,9.0,13.0,59,0.00,,,0.00,Wunderground v.1.15,2013-07-14 15:30:00,
2013-07-14 11:36:00,79.8,63.2,18.79,ESE,114,8.0,13.0,57,0.00,,,0.00,Wunderground v.1.15,2013-07-14 15:36:00,
2013-07-14 11:42:00,79.9,63.3,18.79,ENE,77,6.0,9.0,57,0.00,,,0.00,Wunderground v.1.15,2013-07-14 15:42:00,
2013-07-14 11:48:00,80.7,65.0,18.79,WSW,238,5.0,9.0,59,0.00,,,0.00,Wunderground v.1.15,2013-07-14 15:48:00,
2013-07-14 11:54:00,80.7,64.5,18.79,ESE,117,4.0,6.0,58,0.00,,,0.00,Wunderground v.1.15,2013-07-14 15:54:00,
2013-07-14 12:00:00,80.7,63.5,18.79,SSE,158,5.0,5.0,56,0.00,,,0.00,Wunderground v.1.15,2013-07-14 16:00:00,
2013-07-14 12:06:00,81.1,63.4,18.79,ESE,111,4.0,5.0,55,0.00,,,0.00,Wunderground v.1.15,2013-07-14 16:06:00,
2013-07-14 12:12:00,80.7,64.1,18.79,SSE,163,6.0,9.0,57,0.00,,,0.00,Wunderground v.1.15,2013-07-14 16:12:00,
2013-07-14 12:18:00,80.9,64.7,18.79,SSW,207,6.0,9.0,58,0.00,,,0.00,Wunderground v.1.15,2013-07-14 16:18:00,
2013-07-14 12:24:00,81.2,63.5,18.79,SE,127,4.0,10.0,55,0.00,,,0.00,Wunderground v.1.15,2013-07-14 16:24:00,
2013-07-14 12:30:00,81.2,64.0,18.79,SE,128,7.0,7.0,56,0.00,,,0.00,Wunderground v.1.15,2013-07-14 16:30:00,
2013-07-14 12:36:00,81.4,63.2,18.79,SE,129,6.0,7.0,54,0.00,,,0.00,Wunderground v.1.15,2013-07-14 16:36:00,
2013-07-14 12:42:00,82.2,64.4,18.79,SW,228,4.0,4.0,55,0.00,,,0.00,Wunderground v.1.15,2013-07-14 16:42:00,
2013-07-14 12:48:00,82.4,64.6,18.79,South,170,4.0,10.0,55,0.00,,,0.00,Wunderground v.1.15,2013-07-14 16:48:00,
2013-07-14 12:54:00,82.2,63.4,18.78,East,97,7.0,13.0,53,0.00,,,0.00,Wunderground v.1.15,2013-07-14 16:54:00,
2013-07-14 13:00:00,82.4,64.1,18.78,SW,216,8.0,8.0,54,0.00,,,0.00,Wunderground v.1.15,2013-07-14 17:00:00,
2013-07-14 13:06:00,82.6,63.7,18.78,South,184,4.0,8.0,53,0.00,,,0.00,Wunderground v.1.15,2013-07-14 17:06:00,
2013-07-14 13:12:00,83.2,63.7,18.78,SSE,160,2.0,4.0,52,0.00,,,0.00,Wunderground v.1.15,2013-07-14 17:12:00,
2013-07-14 13:18:00,83.2,65.4,18.78,SSE,149,4.0,6.0,55,0.00,,,0.00,Wunderground v.1.15,2013-07-14 17:18:00,
2013-07-14 13:24:00,83.6,65.7,18.78,SW,221,3.0,4.0,55,0.00,,,0.00,Wunderground v.1.15,2013-07-14 17:24:00,
2013-07-14 13:30:00,83.8,63.7,18.78,SW,225,2.0,2.0,51,0.00,,,0.00,Wunderground v.1.15,2013-07-14 17:30:00,
2013-07-14 13:36:00,84.1,65.1,18.78,SW,219,2.0,6.0,53,0.00,,,0.00,Wunderground v.1.15,2013-07-14 17:36:00,
2013-07-14 13:42:00,84.9,66.4,18.78,SSE,165,1.0,3.0,54,0.00,,,0.00,Wunderground v.1.15,2013-07-14 17:42:00,
2013-07-14 13:48:00,84.3,66.4,18.78,SSE,155,3.0,8.0,55,0.00,,,0.00,Wunderground v.1.15,2013-07-14 17:48:00,
2013-07-14 13:54:00,84.3,64.2,18.78,SSW,195,4.0,9.0,51,0.00,,,0.00,Wunderground v.1.15,2013-07-14 17:54:00,
2013-07-14 14:00:00,84.9,66.4,18.78,SW,219,3.0,6.0,54,0.00,,,0.00,Wunderground v.1.15,2013-07-14 18:00:00,
2013-07-14 14:06:00,84.7,64.6,18.78,SSE,160,3.0,6.0,51,0.00,,,0.00,Wunderground v.1.15,2013-07-14 18:06:00,
2013-07-14 14:12:00,85.3,64.0,18.78,SSE,153,2.0,11.0,49,0.00,,,0.00,Wunderground v.1.15,2013-07-14 18:12:00,
2013-07-14 14:18:00,84.9,65.3,18.78,SW,226,3.0,11.0,52,0.00,,,0.00,Wunderground v.1.15,2013-07-14 18:18:00,
2013-07-14 14:24:00,84.7,64.0,18.78,SSE,167,4.0,7.0,50,0.00,,,0.00,Wunderground v.1.15,2013-07-14 18:24:00,
2013-07-14 14:30:00,84.9,64.8,18.78,WNW,285,4.0,4.0,51,0.00,,,0.00,Wunderground v.1.15,2013-07-14 18:30:00,
2013-07-14 14:36:00,85.3,63.4,18.78,SE,142,3.0,4.0,48,0.00,,,0.00,Wunderground v.1.15,2013-07-14 18:36:00,
2013-07-14 14:42:00,84.9,63.0,18.78,SSE,164,4.0,6.0,48,0.00,,,0.00,Wunderground v.1.15,2013-07-14 18:42:00,
2013-07-14 14:48:00,85.3,64.6,18.78,SSE,148,4.0,8.0,50,0.00,,,0.00,Wunderground v.1.15,2013-07-14 18:48:00,
2013-07-14 14:54:00,85.5,63.0,18.78,SE,126,3.0,4.0,47,0.00,,,0.00,Wunderground v.1.15,2013-07-14 18:54:00,
2013-07-14 15:00:00,85.9,62.7,18.78,East,88,2.0,2.0,46,0.00,,,0.00,Wunderground v.1.15,2013-07-14 19:00:00,
2013-07-14 15:06:00,85.9,63.9,18.77,South,169,3.0,7.0,48,0.00,,,0.00,Wunderground v.1.15,2013-07-14 19:06:00,
2013-07-14 15:12:00,85.7,63.1,18.77,South,188,3.0,3.0,47,0.00,,,0.00,Wunderground v.1.15,2013-07-14 19:12:00,
2013-07-14 15:18:00,84.5,62.7,18.77,ESE,115,4.0,10.0,48,0.00,,,0.00,Wunderground v.1.15,2013-07-14 19:18:00,
2013-07-14 15:24:00,84.7,64.6,18.78,SE,129,3.0,3.0,51,0.00,,,0.00,Wunderground v.1.15,2013-07-14 19:24:00,
2013-07-14 15:30:00,84.9,65.9,18.78,South,187,2.0,3.0,53,0.00,,,0.00,Wunderground v.1.15,2013-07-14 19:30:00,
2013-07-14 15:36:00,84.1,65.1,18.78,SSE,159,2.0,5.0,53,0.00,,,0.00,Wunderground v.1.15,2013-07-14 19:36:00,
2013-07-14 15:42:00,85.1,63.8,18.78,SSE,159,1.0,2.0,49,0.00,,,0.00,Wunderground v.1.15,2013-07-14 19:42:00,
2013-07-14 15:48:00,86.1,62.3,18.78,SSW,208,1.0,3.0,45,0.00,,,0.00,Wunderground v.1.15,2013-07-14 19:48:00,
2013-07-14 15:54:00,86.5,64.5,18.77,SSW,208,1.0,1.0,48,0.00,,,0.00,Wunderground v.1.15,2013-07-14 19:54:00,
2013-07-14 16:00:00,86.3,64.3,18.77,SE,140,2.0,2.0,48,0.00,,,0.00,Wunderground v.1.15,2013-07-14 20:00:00,
2013-07-14 16:06:00,86.5,64.5,18.77,SSE,153,2.0,5.0,48,0.00,,,0.00,Wunderground v.1.15,2013-07-14 20:06:00,
2013-07-14 16:12:00,85.9,65.1,18.77,SW,214,2.0,4.0,50,0.00,,,0.00,Wunderground v.1.15,2013-07-14 20:12:00,
2013-07-14 16:18:00,84.9,64.2,18.77,South,175,3.0,6.0,50,0.00,,,0.00,Wunderground v.1.15,2013-07-14 20:18:00,
2013-07-14 16:24:00,84.1,62.9,18.78,SSE,148,5.0,5.0,49,0.00,,,0.00,Wunderground v.1.15,2013-07-14 20:24:00,
2013-07-14 16:30:00,84.7,65.1,18.78,SSE,162,4.0,4.0,52,0.00,,,0.00,Wunderground v.1.15,2013-07-14 20:30:00,
2013-07-14 16:36:00,85.5,64.2,18.78,South,191,3.0,4.0,49,0.00,,,0.00,Wunderground v.1.15,2013-07-14 20:36:00,
2013-07-14 16:42:00,86.3,66.0,18.78,SW,221,2.0,3.0,51,0.00,,,0.00,Wunderground v.1.15,2013-07-14 20:42:00,
2013-07-14 16:48:00,86.7,64.7,18.78,South,174,1.0,4.0,48,0.00,,,0.00,Wunderground v.1.15,2013-07-14 20:48:00,
2013-07-14 16:54:00,87.2,64.5,18.77,South,186,1.0,10.0,47,0.00,,,0.00,Wunderground v.1.15,2013-07-14 20:54:00,
2013-07-14 17:00:00,86.7,64.1,18.77,SSW,193,3.0,3.0,47,0.00,,,0.00,Wunderground v.1.15,2013-07-14 21:00:00,
2013-07-14 17:06:00,86.7,64.1,18.77,SSW,203,2.0,3.0,47,0.00,,,0.00,Wunderground v.1.15,2013-07-14 21:06:00,
2013-07-14 17:12:00,87.0,63.7,18.77,SW,215,1.0,1.0,46,0.00,,,0.00,Wunderground v.1.15,2013-07-14 21:12:00,
2013-07-14 17:18:00,87.2,65.1,18.77,South,180,1.0,4.0,48,0.00,,,0.00,Wunderground v.1.15,2013-07-14 21:18:00,
2013-07-14 17:24:00,85.1,63.2,18.77,South,175,2.0,2.0,48,0.00,,,0.00,Wunderground v.1.15,2013-07-14 21:24:00,
2013-07-14 17:30:00,84.7,63.4,18.77,SSE,150,2.0,2.0,49,0.00,,,0.00,Wunderground v.1.15,2013-07-14 21:30:00,
2013-07-14 17:36:00,85.3,65.7,18.77,South,179,2.0,4.0,52,0.00,,,0.00,Wunderground v.1.15,2013-07-14 21:36:00,
2013-07-14 17:42:00,84.5,63.8,18.77,SSE,167,2.0,2.0,50,0.00,,,0.00,Wunderground v.1.15,2013-07-14 21:42:00,
2013-07-14 17:48:00,84.0,66.6,18.77,SSE,165,1.0,2.0,56,0.00,,,0.00,Wunderground v.1.15,2013-07-14 21:48:00,
2013-07-14 17:54:00,83.4,66.1,18.78,SSE,165,1.0,3.0,56,0.00,,,0.00,Wunderground v.1.15,2013-07-14 21:54:00,
2013-07-14 18:00:00,82.8,65.5,18.78,SSE,152,3.0,3.0,56,0.00,,,0.00,Wunderground v.1.15,2013-07-14 22:00:00,
2013-07-14 18:06:00,82.8,65.5,18.78,SSE,152,3.0,3.0,56,0.00,,,0.00,Wunderground v.1.15,2013-07-14 22:06:00,
2013-07-14 18:12:00,83.0,65.7,18.78,SSE,152,2.0,2.0,56,0.00,,,0.00,Wunderground v.1.15,2013-07-14 22:12:00,
2013-07-14 18:18:00,82.4,67.1,18.78,South,188,3.0,3.0,60,0.00,,,0.00,Wunderground v.1.15,2013-07-14 22:18:00,
2013-07-14 18:24:00,82.2,66.9,18.78,South,184,2.0,3.0,60,0.00,,,0.00,Wunderground v.1.15,2013-07-14 22:24:00,
2013-07-14 18:30:00,82.0,66.7,18.78,South,184,2.0,2.0,60,0.00,,,0.00,Wunderground v.1.15,2013-07-14 22:30:00,
2013-07-14 18:36:00,82.2,67.4,18.78,SSE,163,2.0,3.0,61,0.00,,,0.00,Wunderground v.1.15,2013-07-14 22:36:00,
2013-07-14 18:42:00,82.4,66.1,18.78,SSE,163,2.0,2.0,58,0.00,,,0.00,Wunderground v.1.15,2013-07-14 22:42:00,
2013-07-14 18:48:00,83.4,67.6,18.78,SSE,163,1.0,2.0,59,0.00,,,0.00,Wunderground v.1.15,2013-07-14 22:48:00,
2013-07-14 18:54:00,83.6,66.8,18.78,SSE,163,1.0,2.0,57,0.00,,,0.00,Wunderground v.1.15,2013-07-14 22:54:00,
2013-07-14 19:00:00,84.0,66.6,18.78,SSE,163,1.0,1.0,56,0.00,,,0.00,Wunderground v.1.15,2013-07-14 23:00:00,
2013-07-14 19:06:00,84.3,66.4,18.78,SSE,163,0.0,1.0,55,0.00,,,0.00,Wunderground v.1.15,2013-07-14 23:06:00,
2013-07-14 19:12:00,84.5,67.1,18.78,SSE,163,0.0,0.0,56,0.00,,,0.00,Wunderground v.1.15,2013-07-14 23:12:00,
2013-07-14 19:18:00,84.3,66.9,18.78,SSE,163,0.0,2.0,56,0.00,,,0.00,Wunderground v.1.15,2013-07-14 23:18:00,
2013-07-14 19:24:00,82.6,67.3,18.78,SSE,163,2.0,3.0,60,0.00,,,0.00,Wunderground v.1.15,2013-07-14 23:24:00,
2013-07-14 19:30:00,81.8,67.0,18.78,SSE,150,3.0,4.0,61,0.00,,,0.00,Wunderground v.1.15,2013-07-14 23:30:00,
2013-07-14 19:36:00,81.6,66.8,18.78,SSE,149,3.0,4.0,61,0.00,,,0.00,Wunderground v.1.15,2013-07-14 23:36:00,
2013-07-14 19:42:00,81.4,66.7,18.78,SSE,165,3.0,3.0,61,0.00,,,0.00,Wunderground v.1.15,2013-07-14 23:42:00,
2013-07-14 19:48:00,81.2,66.5,18.78,SSE,165,3.0,3.0,61,0.00,,,0.00,Wunderground v.1.15,2013-07-14 23:48:00,
2013-07-14 19:54:00,80.9,66.7,18.79,SSE,165,3.0,4.0,62,0.00,,,0.00,Wunderground v.1.15,2013-07-14 23:54:00,
2013-07-14 20:00:00,80.7,66.0,18.79,SSE,149,3.0,3.0,61,0.00,,,0.00,Wunderground v.1.15,2013-07-15 00:00:00,
2013-07-14 20:06:00,80.7,66.9,18.79,SSE,149,3.0,3.0,63,0.00,,,0.00,Wunderground v.1.15,2013-07-15 00:06:00,
2013-07-14 20:12:00,80.5,66.7,18.79,East,94,2.0,3.0,63,0.00,,,0.00,Wunderground v.1.15,2013-07-15 00:12:00,
2013-07-14 20:18:00,80.1,66.4,18.79,East,96,3.0,3.0,63,0.00,,,0.00,Wunderground v.1.15,2013-07-15 00:18:00,
2013-07-14 20:24:00,79.8,66.1,18.79,SSE,150,3.0,4.0,63,0.00,,,0.00,Wunderground v.1.15,2013-07-15 00:24:00,
2013-07-14 20:30:00,80.1,65.4,18.79,SE,139,3.0,4.0,61,0.00,,,0.00,Wunderground v.1.15,2013-07-15 00:30:00,
2013-07-14 20:36:00,80.1,65.4,18.79,SE,139,4.0,4.0,61,0.00,,,0.00,Wunderground v.1.15,2013-07-15 00:36:00,
2013-07-14 20:42:00,-999.9,-99.9,18.79,North,32767,-999.0,0.0,255,-99.99,,,0.00,Wunderground v.1.15,2013-07-15 00:42:00,
2013-07-14 20:48:00,-999.9,-99.9,18.79,North,32767,-999.0,0.0,255,-99.99,,,0.00,Wunderground v.1.15,2013-07-15 00:48:00,
2013-07-14 20:54:00,-999.9,-99.9,18.84,North,32767,-999.0,0.0,255,-99.99,,,0.00,Wunderground v.1.15,2013-07-15 00:54:00,
2013-07-14 21:00:00,-999.9,-99.9,18.84,North,32767,-999.0,0.0,255,-99.99,,,0.00,Wunderground v.1.15,2013-07-15 01:00:00,
2013-07-14 21:06:00,-999.9,-99.9,18.84,North,32767,-999.0,0.0,255,-99.99,,,0.00,Wunderground v.1.15,2013-07-15 01:06:00,
2013-07-14 21:12:00,-999.9,-99.9,18.84,North,32767,-999.0,0.0,255,-99.99,,,0.00,Wunderground v.1.15,2013-07-15 01:12:00,
2013-07-14 21:18:00,-999.9,-99.9,18.84,North,32767,-999.0,0.0,255,-99.99,,,0.00,Wunderground v.1.15,2013-07-15 01:18:00,
2013-07-14 21:24:00,-999.9,-99.9,18.84,North,32767,-999.0,0.0,255,-99.99,,,0.00,Wunderground v.1.15,2013-07-15 01:24:00,
2013-07-14 21:30:00,-999.9,-99.9,18.84,North,32767,-999.0,0.0,255,-99.99,,,0.00,Wunderground v.1.15,2013-07-15 01:30:00,
2013-07-14 21:36:00,-999.9,-99.9,18.84,North,32767,-999.0,0.0,255,-99.99,,,0.00,Wunderground v.1.15,2013-07-15 01:36:00,
2013-07-14 21:42:00,-999.9,-99.9,18.84,North,32767,-999.0,0.0,255,-99.99,,,0.00,Wunderground v.1.15,2013-07-15 01:42:00,
2013-07-14 21:48:00,-999.9,-99.9,18.84,North,32767,-999.0,0.0,255,-99.99,,,0.00,Wunderground v.1.15,2013-07-15 01:48:00,
2013-07-14 21:54:00,-999.9,-99.9,18.84,North,32767,-999.0,0.0,255,-99.99,,,0.00,Wunderground v.1.15,2013-07-15 01:54:00,
2013-07-14 22:00:00,-999.9,-99.9,18.84,North,32767,-999.0,0.0,255,-99.99,,,0.00,Wunderground v.1.15,2013-07-15 02:00:00,
2013-07-14 22:06:00,-999.9,-99.9,18.84,North,32767,-999.0,0.0,255,-99.99,,,0.00,Wunderground v.1.15,2013-07-15 02:06:00,
2013-07-14 22:12:00,-999.9,-99.9,18.84,North,32767,-999.0,0.0,255,-99.99,,,0.00,Wunderground v.1.15,2013-07-15 02:12:00,
2013-07-14 22:18:00,-999.9,-99.9,18.84,North,32767,-999.0,0.0,255,-99.99,,,0.00,Wunderground v.1.15,2013-07-15 02:18:00,
2013-07-14 22:20:00,-999.9,-99.9,18.84,North,32767,-999.0,0.0,255,-99.99,,,0.00,Wunderground v.1.15,2013-07-15 02:20:00,
2013-07-14 22:26:00,-999.9,-99.9,18.84,North,32767,-999.0,0.0,255,-99.99,,,0.00,Wunderground v.1.15,2013-07-15 02:26:00,
2013-07-14 22:32:00,-999.9,-99.9,18.84,North,32767,-999.0,0.0,255,-99.99,,,0.00,Wunderground v.1.15,2013-07-15 02:32:00,
2013-07-14 22:38:00,-999.9,-99.9,18.84,North,32767,-999.0,0.0,255,-99.99,,,0.00,Wunderground v.1.15,2013-07-15 02:38:00,
2013-07-14 22:44:00,-999.9,-99.9,18.84,North,32767,-999.0,0.0,255,-99.99,,,0.00,Wunderground v.1.15,2013-07-15 02:44:00,
2013-07-14 22:50:00,-999.9,-99.9,18.79,North,32767,-999.0,0.0,255,-99.99,,,0.00,Wunderground v.1.15,2013-07-15 02:50:00,
2013-07-14 22:56:00,-999.9,-99.9,18.79,North,32767,-999.0,0.0,255,-99.99,,,0.00,Wunderground v.1.15,2013-07-15 02:56:00,
2013-07-14 23:02:00,-999.9,-99.9,18.79,North,32767,-999.0,0.0,255,-99.99,,,0.00,Wunderground v.1.15,2013-07-15 03:02:00,
2013-07-14 23:08:00,-999.9,-99.9,18.79,North,32767,-999.0,0.0,255,-99.99,,,0.00,Wunderground v.1.15,2013-07-15 03:08:00,
2013-07-14 23:14:00,-999.9,-99.9,18.79,North,32767,-999.0,0.0,255,-99.99,,,0.00,Wunderground v.1.15,2013-07-15 03:14:00,
2013-07-14 23:20:00,-999.9,-99.9,18.79,North,32767,-999.0,0.0,255,-99.99,,,0.00,Wunderground v.1.15,2013-07-15 03:20:00,
2013-07-14 23:26:00,-999.9,-99.9,18.79,North,32767,-999.0,0.0,255,-99.99,,,0.00,Wunderground v.1.15,2013-07-15 03:26:00,
2013-07-14 23:32:00,-999.9,-99.9,18.79,North,32767,-999.0,0.0,255,-99.99,,,0.00,Wunderground v.1.15,2013-07-15 03:32:00,
2013-07-14 23:38:00,-999.9,-99.9,18.79,North,32767,-999.0,0.0,255,-99.99,,,0.00,Wunderground v.1.15,2013-07-15 03:38:00,
2013-07-14 23:44:00,-999.9,-99.9,18.79,North,32767,-999.0,0.0,255,-99.99,,,0.00,Wunderground v.1.15,2013-07-15 03:44:00,
2013-07-14 23:50:00,-999.9,-99.9,18.79,North,32767,-999.0,0.0,255,-99.99,,,0.00,Wunderground v.1.15,2013-07-15 03:50:00,
2013-07-14 23:56:00,-999.9,-99.9,18.79,North,32767,-999.0,0.0,255,-99.99,,,0.00,Wunderground v.1.15,2013-07-15 03:56:00,